Time,TemperatureF,DewpointF,PressureIn,WindDirection,WindDirectionDegrees,WindSpeedMPH,WindSpeedGustMPH,Humidity,HourlyPrecipIn,Conditions,Clouds,dailyrainin,SoftwareType,DateUTC
2013-07-05 00:13:00,76.2,73.0,30.13,SW,225,0.0,1.0,90,0.00,,,0.00,weatherlink.com 1.10,2013-07-05 04:13:00,
2013-07-05 00:28:00,76.0,73.0,30.14,NW,324,0.0,1.0,90,0.00,,,0.00,weatherlink.com 1.10,2013-07-05 04:28:00,
2013-07-05 00:43:00,75.8,73.0,30.13,NNE,17,0.0,1.0,90,0.00,,,0.00,weatherlink.com 1.10,2013-07-05 04:43:00,
2013-07-05 00:58:00,75.6,73.0,30.14,SE,133,0.0,1.0,91,0.00,,,0.00,weatherlink.com 1.10,2013-07-05 04:58:00,
2013-07-05 01:13:00,75.5,73.0,30.13,SSW,194,1.0,1.0,91,0.00,,,0.00,weatherlink.com 1.10,2013-07-05 05:13:00,
2013-07-05 01:28:00,75.3,73.0,30.13,SSW,193,0.0,1.0,91,0.00,,,0.00,weatherlink.com 1.10,2013-07-05 05:28:00,
2013-07-05 01:43:00,75.3,73.0,30.13,SW,236,0.0,0.0,91,0.00,,,0.00,weatherlink.com 1.10,2013-07-05 05:43:00,
2013-07-05 01:58:00,75.3,73.0,30.12,NE,53,0.0,1.0,91,0.00,,,0.00,weatherlink.com 1.10,2013-07-05 05:58:00,
2013-07-05 02:13:00,75.1,72.0,30.12,SSE,150,0.0,1.0,91,0.00,,,0.00,weatherlink.com 1.10,2013-07-05 06:13:00,
2013-07-05 02:28:00,75.1,72.0,30.12,SE,128,0.0,1.0,91,0.00,,,0.00,weatherlink.com 1.10,2013-07-05 06:28:00,
2013-07-05 02:43:00,74.9,72.0,30.12,South,171,0.0,1.0,91,0.00,,,0.00,weatherlink.com 1.10,2013-07-05 06:43:00,
2013-07-05 02:58:00,74.9,72.0,30.12,SSE,156,0.0,1.0,91,0.00,,,0.00,weatherlink.com 1.10,2013-07-05 06:58:00,
2013-07-05 03:13:00,74.5,72.0,30.12,ESE,118,0.0,1.0,92,0.00,,,0.00,weatherlink.com 1.10,2013-07-05 07:13:00,
2013-07-05 03:28:00,74.2,72.0,30.13,ESE,118,0.0,0.0,92,0.00,,,0.00,weatherlink.com 1.10,2013-07-05 07:28:00,
2013-07-05 03:43:00,74.1,72.0,30.13,ESE,118,0.0,1.0,93,0.00,,,0.00,weatherlink.com 1.10,2013-07-05 07:43:00,
2013-07-05 03:58:00,74.0,72.0,30.13,WNW,286,0.0,1.0,93,0.00,,,0.00,weatherlink.com 1.10,2013-07-05 07:58:00,
2013-07-05 04:13:00,73.8,72.0,30.13,WNW,287,0.0,0.0,93,0.00,,,0.00,weatherlink.com 1.10,2013-07-05 08:13:00,
2013-07-05 04:28:00,73.4,72.0,30.13,WNW,287,0.0,0.0,94,0.00,,,0.00,weatherlink.com 1.10,2013-07-05 08:28:00,
2013-07-05 04:43:00,73.2,71.0,30.13,WNW,286,0.0,0.0,94,0.00,,,0.00,weatherlink.com 1.10,2013-07-05 08:43:00,
2013-07-05 05:13:00,72.6,71.0,30.14,WNW,287,0.0,0.0,95,0.00,,,0.00,weatherlink.com 1.10,2013-07-05 09:13:00,
2013-07-05 05:28:00,72.3,71.0,30.14,WNW,287,0.0,0.0,96,0.00,,,0.00,weatherlink.com 1.10,2013-07-05 09:28:00,
2013-07-05 05:43:00,72.2,71.0,30.14,WNW,287,0.0,0.0,96,0.00,,,0.00,weatherlink.com 1.10,2013-07-05 09:43:00,
2013-07-05 06:13:00,72.6,72.0,30.15,WNW,287,0.0,0.0,97,0.00,,,0.00,weatherlink.com 1.10,2013-07-05 10:13:00,
2013-07-05 06:28:00,73.1,72.0,30.15,SSE,158,0.0,0.0,97,0.00,,,0.00,weatherlink.com 1.10,2013-07-05 10:28:00,
2013-07-05 06:43:00,73.7,73.0,30.15,SSE,158,0.0,0.0,97,0.00,,,0.00,weatherlink.com 1.10,2013-07-05 10:43:00,
2013-07-05 06:58:00,74.4,73.0,30.15,SE,145,0.0,0.0,96,0.00,,,0.00,weatherlink.com 1.10,2013-07-05 10:58:00,
2013-07-05 07:13:00,75.5,74.0,30.15,ESE,112,0.0,2.0,94,0.00,,,0.00,weatherlink.com 1.10,2013-07-05 11:13:00,
2013-07-05 07:58:00,78.6,75.0,30.15,ESE,115,0.0,1.0,88,0.00,,,0.00,weatherlink.com 1.10,2013-07-05 11:58:00,
2013-07-05 08:13:00,80.0,76.0,30.15,ESE,115,0.0,0.0,88,0.00,,,0.00,weatherlink.com 1.10,2013-07-05 12:13:00,
2013-07-05 08:28:00,81.8,77.0,30.15,ESE,116,0.0,0.0,84,0.00,,,0.00,weatherlink.com 1.10,2013-07-05 12:28:00,
2013-07-05 08:43:00,84.0,77.0,30.15,South,183,0.0,1.0,80,0.00,,,0.00,weatherlink.com 1.10,2013-07-05 12:43:00,
2013-07-05 09:29:00,87.7,79.0,30.14,East,101,0.0,1.0,74,0.00,,,0.00,weatherlink.com 1.10,2013-07-05 13:29:00,
2013-07-05 09:44:00,88.3,78.0,30.13,SE,146,0.0,0.0,72,0.00,,,0.00,weatherlink.com 1.10,2013-07-05 13:44:00,
2013-07-05 10:14:00,90.0,78.0,30.13,NNE,29,0.0,0.0,68,0.00,,,0.00,weatherlink.com 1.10,2013-07-05 14:14:00,
2013-07-05 10:44:00,91.3,77.0,30.12,South,184,0.0,0.0,64,0.00,,,0.00,weatherlink.com 1.10,2013-07-05 14:44:00,
2013-07-05 10:59:00,91.6,78.0,30.12,SW,218,0.0,0.0,65,0.00,,,0.00,weatherlink.com 1.10,2013-07-05 14:59:00,
2013-07-05 11:14:00,92.2,79.0,30.12,ESE,110,0.0,3.0,66,0.00,,,0.00,weatherlink.com 1.10,2013-07-05 15:14:00,
2013-07-05 11:29:00,92.7,79.0,30.12,SSE,165,0.0,2.0,65,0.00,,,0.00,weatherlink.com 1.10,2013-07-05 15:29:00,
2013-07-05 11:44:00,93.6,78.0,30.11,SE,124,0.0,2.0,61,0.00,,,0.00,weatherlink.com 1.10,2013-07-05 15:44:00,
2013-07-05 11:59:00,94.5,78.0,30.11,SSE,166,0.0,0.0,59,0.00,,,0.00,weatherlink.com 1.10,2013-07-05 15:59:00,
2013-07-05 12:14:00,93.6,80.0,30.11,East,99,0.0,5.0,64,0.00,,,0.00,weatherlink.com 1.10,2013-07-05 16:14:00,
2013-07-05 12:30:00,92.4,77.0,30.10,NW,308,0.0,0.0,61,0.00,,,0.00,weatherlink.com 1.10,2013-07-05 16:30:00,
2013-07-05 12:44:00,92.2,79.0,30.10,East,79,0.0,2.0,65,0.00,,,0.00,weatherlink.com 1.10,2013-07-05 16:44:00,
2013-07-05 12:59:00,91.4,79.0,30.10,NW,316,0.0,1.0,67,0.00,,,0.00,weatherlink.com 1.10,2013-07-05 16:59:00,
2013-07-05 13:14:00,91.4,79.0,30.09,WNW,290,0.0,2.0,67,0.00,,,0.00,weatherlink.com 1.10,2013-07-05 17:14:00,
2013-07-05 13:29:00,92.4,79.0,30.09,NE,40,1.0,3.0,65,0.00,,,0.00,weatherlink.com 1.10,2013-07-05 17:29:00,
2013-07-05 13:44:00,92.8,78.0,30.08,East,85,0.0,2.0,63,0.00,,,0.00,weatherlink.com 1.10,2013-07-05 17:44:00,
2013-07-05 13:59:00,92.1,76.0,30.08,ENE,78,2.0,2.0,60,0.00,,,0.00,weatherlink.com 1.10,2013-07-05 17:59:00,
2013-07-05 14:14:00,91.5,79.0,30.08,SE,136,0.0,3.0,67,0.00,,,0.00,weatherlink.com 1.10,2013-07-05 18:14:00,
2013-07-05 14:29:00,90.8,78.0,30.08,ENE,58,0.0,2.0,66,0.00,,,0.00,weatherlink.com 1.10,2013-07-05 18:29:00,
2013-07-05 14:44:00,90.0,78.0,30.08,NW,324,1.0,2.0,68,0.00,,,0.00,weatherlink.com 1.10,2013-07-05 18:44:00,
2013-07-05 14:59:00,88.8,76.0,30.07,South,176,0.0,3.0,66,0.00,,,0.00,weatherlink.com 1.10,2013-07-05 18:59:00,
2013-07-05 15:14:00,90.1,78.0,30.07,NNE,32,1.0,1.0,67,0.00,,,0.00,weatherlink.com 1.10,2013-07-05 19:14:00,
2013-07-05 15:29:00,90.2,77.0,30.06,NW,312,0.0,2.0,66,0.00,,,0.00,weatherlink.com 1.10,2013-07-05 19:29:00,
2013-07-05 15:45:00,90.1,77.0,30.05,NW,325,0.0,2.0,65,0.00,,,0.00,weatherlink.com 1.10,2013-07-05 19:45:00,
2013-07-05 16:00:00,89.5,76.0,30.05,West,272,0.0,2.0,65,0.00,,,0.00,weatherlink.com 1.10,2013-07-05 20:00:00,
2013-07-05 16:15:00,88.8,76.0,30.05,ESE,119,1.0,1.0,67,0.00,,,0.00,weatherlink.com 1.10,2013-07-05 20:15:00,
2013-07-05 16:30:00,89.3,77.0,30.04,NW,324,0.0,2.0,67,0.00,,,0.00,weatherlink.com 1.10,2013-07-05 20:30:00,
2013-07-05 16:45:00,89.3,77.0,30.04,West,263,1.0,4.0,68,0.00,,,0.00,weatherlink.com 1.10,2013-07-05 20:45:00,
2013-07-05 17:00:00,88.8,78.0,30.04,SSE,149,0.0,3.0,70,0.00,,,0.00,weatherlink.com 1.10,2013-07-05 21:00:00,
2013-07-05 17:15:00,88.7,79.0,30.04,East,97,1.0,3.0,72,0.00,,,0.00,weatherlink.com 1.10,2013-07-05 21:15:00,
2013-07-05 17:30:00,88.4,78.0,30.04,East,101,0.0,3.0,71,0.00,,,0.00,weatherlink.com 1.10,2013-07-05 21:30:00,
2013-07-05 17:45:00,87.8,76.0,30.04,WSW,253,1.0,5.0,68,0.00,,,0.00,weatherlink.com 1.10,2013-07-05 21:45:00,
2013-07-05 18:00:00,87.4,76.0,30.04,South,188,0.0,4.0,69,0.00,,,0.00,weatherlink.com 1.10,2013-07-05 22:00:00,
2013-07-05 18:15:00,86.9,76.0,30.04,West,278,0.0,2.0,71,0.00,,,0.00,weatherlink.com 1.10,2013-07-05 22:15:00,
2013-07-05 18:30:00,86.6,76.0,30.03,SSW,205,1.0,4.0,70,0.00,,,0.00,weatherlink.com 1.10,2013-07-05 22:30:00,
2013-07-05 18:45:00,86.4,76.0,30.03,SW,228,0.0,2.0,72,0.00,,,0.00,weatherlink.com 1.10,2013-07-05 22:45:00,
2013-07-05 19:00:00,85.9,77.0,30.03,East,83,0.0,3.0,75,0.00,,,0.00,weatherlink.com 1.10,2013-07-05 23:00:00,
2013-07-05 19:15:00,85.4,77.0,30.03,East,96,2.0,2.0,76,0.00,,,0.00,weatherlink.com 1.10,2013-07-05 23:15:00,
2013-07-05 19:30:00,84.8,77.0,30.03,SE,131,0.0,1.0,77,0.00,,,0.00,weatherlink.com 1.10,2013-07-05 23:30:00,
2013-07-05 19:45:00,84.0,77.0,30.03,SSW,208,0.0,1.0,79,0.00,,,0.00,weatherlink.com 1.10,2013-07-05 23:45:00,
2013-07-05 20:00:00,83.5,77.0,30.03,SSW,203,0.0,4.0,80,0.00,,,0.00,weatherlink.com 1.10,2013-07-06 00:00:00,
2013-07-05 20:15:00,82.9,77.0,30.03,SE,134,1.0,1.0,81,0.00,,,0.00,weatherlink.com 1.10,2013-07-06 00:15:00,
2013-07-05 20:30:00,82.1,76.0,30.03,ESE,113,0.0,4.0,82,0.00,,,0.00,weatherlink.com 1.10,2013-07-06 00:30:00,
2013-07-05 20:45:00,81.5,76.0,30.03,South,180,0.0,2.0,83,0.00,,,0.00,weatherlink.com 1.10,2013-07-06 00:45:00,
2013-07-05 21:00:00,80.9,76.0,30.04,SE,143,0.0,2.0,84,0.00,,,0.00,weatherlink.com 1.10,2013-07-06 01:00:00,
2013-07-05 21:15:00,80.5,76.0,30.04,South,169,0.0,3.0,85,0.00,,,0.00,weatherlink.com 1.10,2013-07-06 01:15:00,
2013-07-05 21:30:00,79.9,75.0,30.05,East,93,0.0,1.0,86,0.00,,,0.00,weatherlink.com 1.10,2013-07-06 01:30:00,
2013-07-05 21:45:00,79.5,75.0,30.05,NNE,12,0.0,1.0,86,0.00,,,0.00,weatherlink.com 1.10,2013-07-06 01:45:00,
2013-07-05 22:00:00,79.2,75.0,30.05,East,81,0.0,1.0,87,0.00,,,0.00,weatherlink.com 1.10,2013-07-06 02:00:00,
2013-07-05 22:15:00,78.7,75.0,30.05,ESE,107,0.0,1.0,87,0.00,,,0.00,weatherlink.com 1.10,2013-07-06 02:15:00,
2013-07-05 22:30:00,78.4,75.0,30.05,SE,144,0.0,1.0,88,0.00,,,0.00,weatherlink.com 1.10,2013-07-06 02:30:00,
2013-07-05 22:45:00,78.0,74.0,30.05,SE,146,0.0,1.0,88,0.00,,,0.00,weatherlink.com 1.10,2013-07-06 02:45:00,
2013-07-05 23:00:00,77.6,74.0,30.05,SSE,147,0.0,1.0,88,0.00,,,0.00,weatherlink.com 1.10,2013-07-06 03:00:00,
2013-07-05 23:15:00,77.2,74.0,30.04,SE,146,0.0,1.0,89,0.00,,,0.00,weatherlink.com 1.10,2013-07-06 03:15:00,
2013-07-05 23:30:00,77.0,74.0,30.05,South,184,0.0,1.0,89,0.00,,,0.00,weatherlink.com 1.10,2013-07-06 03:30:00,
2013-07-05 23:45:00,77.0,74.0,30.05,ENE,63,0.0,1.0,89,0.00,,,0.00,weatherlink.com 1.10,2013-07-06 03:45:00,